Weather History for KGDV - November, 2013

Change the Weather History Date:

Tuesday, November 12, 2013

  Actual Average (KMLS) Record (KMLS)
Temperature  
Mean Temperature 26 °F 34 °F  
Max Temperature 44 °F 45 °F 81 °F (1999)
Min Temperature 8 °F 23 °F -17 °F (2000)
Degree Days  
Heating Degree Days 39 31  
Month to date heating degree days 338  
Since 1 July heating degree days 1149  
Cooling Degree Days 0 0  
Month to date cooling degree days 0  
Year to date cooling degree days 730  
Moisture  
Dew Point 22 °F    
Average Humidity 81    
Maximum Humidity 100    
Minimum Humidity 57    
Precipitation  
Precipitation 0.00 in 0.01 in 0.23 in (2005)
Month to date precipitation 0.19  
Year to date precipitation 11.95  
Sea Level Pressure  
Sea Level Pressure 30.31 in    
Wind  
Wind Speed 9 mph (SSW)    
Max Wind Speed 15 mph    
Max Gust Speed -    
Visibility 10 miles    
Events      
T = Trace of Precipitation, MM = Missing Value Source: NWS Daily Summary

Daily Weather History Graph

Daily Weather History Graph

Search for Another Location

Airport or City:

Trip Planner

Search our weather history database for the weather conditions in past years. The results will help you decide how hot, cold, wet, or windy it might be!

Date:

Astronomy

Nov. 12, 2013 Rise Set
Actual Time 6:59 AM MST 4:27 PM MST
Civil Twilight 6:26 AM MST 5:00 PM MST
Nautical Twilight 5:49 AM MST 5:37 PM MST
Astronomical Twilight 5:13 AM MST 6:12 PM MST
Moon 1:59 PM MST (11/12) 1:32 AM MST (11/12)
Length of Visible Light 10h 34m
Length of Day
9h 28m
Waxing Gibbous, 77% of the Moon is Illuminated
Nov 12
Waxing Gibbous
Nov 17
Full
Nov 25
Last Quarter
Dec 2
New
Dec 9
First Quarter

Hourly Weather History & Observations

Time (MST) Temp. Windchill Dew Point Humidity Pressure Visibility Wind Dir Wind Speed Gust Speed Precip Events Conditions
12:15 AM 8.6 °F -4.7 °F 8.6 °F 100% 30.52 in 10.0 mi SW 9.2 mph - N/A   Clear
12:35 AM 12.2 °F -0.2 °F 12.2 °F 100% 30.52 in 10.0 mi SW 9.2 mph - N/A   Clear
12:55 AM 14.0 °F 1.2 °F 14.0 °F 100% 30.51 in 10.0 mi SSW 10.4 mph - N/A   Clear
1:15 AM 15.8 °F 3.4 °F 12.2 °F 86% 30.50 in 10.0 mi SSW 10.4 mph - N/A   Clear
1:35 AM 15.8 °F 4.2 °F 12.2 °F 86% 30.50 in 10.0 mi SSW 9.2 mph - N/A   Clear
1:55 AM 15.8 °F 3.4 °F 12.2 °F 86% 30.50 in 10.0 mi SSW 10.4 mph - N/A   Clear
2:15 AM 15.8 °F 4.2 °F 10.4 °F 79% 30.50 in 10.0 mi SSW 9.2 mph - N/A   Clear
2:35 AM 12.2 °F -0.2 °F 8.6 °F 85% 30.50 in 10.0 mi SSW 9.2 mph - N/A   Clear
2:55 AM 12.2 °F -0.2 °F 6.8 °F 79% 30.50 in 10.0 mi SW 9.2 mph - N/A   Clear
3:15 AM 12.2 °F -0.2 °F 10.4 °F 92% 30.50 in 10.0 mi SSW 9.2 mph - N/A   Clear
3:35 AM 12.2 °F -0.2 °F 10.4 °F 92% 30.50 in 10.0 mi SSW 9.2 mph - N/A   Clear
3:55 AM 14.0 °F 1.2 °F 10.4 °F 86% 30.49 in 10.0 mi SSW 10.4 mph - N/A   Clear
4:15 AM 12.2 °F -0.2 °F 8.6 °F 85% 30.48 in 10.0 mi SSW 9.2 mph - N/A   Clear
4:35 AM 15.8 °F 2.7 °F 12.2 °F 86% 30.48 in 10.0 mi SSW 11.5 mph - N/A   Clear
4:55 AM 15.8 °F 5.1 °F 12.2 °F 86% 30.47 in 10.0 mi SSW 8.1 mph - N/A   Clear
5:15 AM 15.8 °F 6.1 °F 12.2 °F 86% 30.46 in 10.0 mi SSW 6.9 mph - N/A   Clear
5:35 AM 15.8 °F 5.1 °F 10.4 °F 79% 30.45 in 10.0 mi SSW 8.1 mph - N/A   Clear
5:55 AM 12.2 °F -0.2 °F 8.6 °F 85% 30.45 in 10.0 mi SSW 9.2 mph - N/A   Clear
6:15 AM 14.0 °F 2.0 °F 10.4 °F 86% 30.44 in 10.0 mi SW 9.2 mph - N/A   Clear
6:35 AM 15.8 °F 4.2 °F 10.4 °F 79% 30.44 in 10.0 mi SW 9.2 mph - N/A   Clear
6:55 AM 15.8 °F 5.1 °F 12.2 °F 86% 30.43 in 10.0 mi SW 8.1 mph - N/A   Clear
7:15 AM 15.8 °F 6.1 °F 8.6 °F 73% 30.42 in 10.0 mi SSW 6.9 mph - N/A   Clear
7:35 AM 17.6 °F 6.4 °F 12.2 °F 79% 30.43 in 10.0 mi SW 9.2 mph - N/A   Clear
7:55 AM 19.4 °F 8.6 °F 15.8 °F 86% 30.42 in 10.0 mi SW 9.2 mph - N/A   Clear
8:15 AM 19.4 °F 8.6 °F 17.6 °F 93% 30.42 in 10.0 mi SSW 9.2 mph - N/A   Clear
8:35 AM 21.2 °F 10.9 °F 19.4 °F 93% 30.41 in 10.0 mi SSW 9.2 mph - N/A   Clear
8:55 AM 23.0 °F 12.4 °F 19.4 °F 86% 30.40 in 10.0 mi SSW 10.4 mph - N/A   Clear
9:15 AM 24.8 °F 14.6 °F 19.4 °F 80% 30.41 in 10.0 mi SW 10.4 mph - N/A   Clear
9:35 AM 26.6 °F 17.5 °F 21.2 °F 80% 30.40 in 10.0 mi SSW 9.2 mph - N/A   Clear
9:55 AM 28.4 °F 18.5 °F 24.8 °F 86% 30.39 in 10.0 mi SSW 11.5 mph - N/A   Clear
10:15 AM 28.4 °F 18.5 °F 24.8 °F 86% 30.39 in 10.0 mi SSW 11.5 mph - N/A   Clear
10:35 AM 30.2 °F 21.3 °F 24.8 °F 80% 30.38 in 10.0 mi SSW 10.4 mph - N/A   Clear
10:55 AM 32.0 °F 23.0 °F 24.8 °F 75% 30.37 in 10.0 mi SSW 11.5 mph - N/A   Clear
11:15 AM 33.8 °F 25.8 °F 26.6 °F 75% 30.36 in 10.0 mi SSW 10.4 mph - N/A   Clear
11:35 AM 35.6 °F 27.1 °F 28.4 °F 75% 30.35 in 10.0 mi SSW 12.7 mph - N/A   Clear
12:16 PM 37.4 °F 28.5 °F 28.4 °F 70% 30.32 in 10.0 mi South 15.0 mph - N/A   Clear
12:35 PM 37.4 °F 28.9 °F 28.4 °F 70% 30.31 in 10.0 mi SSW 13.8 mph - N/A   Clear
12:55 PM 39.2 °F 31.2 °F 30.2 °F 70% 30.29 in 10.0 mi SSW 13.8 mph - N/A   Clear
1:15 PM 39.2 °F 31.6 °F 30.2 °F 70% 30.28 in 10.0 mi SSW 12.7 mph - N/A   Clear
1:55 PM 42.8 °F 40.1 °F 30.2 °F 61% 30.26 in 10.0 mi SSW 4.6 mph - N/A   Clear
2:15 PM 44.6 °F 41.4 °F 30.2 °F 57% 30.25 in 10.0 mi SSW 5.8 mph - N/A   Clear
2:35 PM 44.6 °F 40.7 °F 33.8 °F 66% 30.23 in 10.0 mi South 6.9 mph - N/A   Clear
3:15 PM 44.6 °F 40.2 °F 32.0 °F 61% 30.21 in 10.0 mi WSW 8.1 mph - N/A   Clear
3:35 PM 44.6 °F 40.7 °F 32.0 °F 61% 30.19 in 10.0 mi SSW 6.9 mph - N/A   Clear
3:55 PM 42.8 °F 38.6 °F 32.0 °F 66% 30.19 in 10.0 mi SSW 6.9 mph - N/A   Clear
4:35 PM 35.6 °F 29.9 °F 28.4 °F 75% 30.17 in 10.0 mi South 6.9 mph - N/A   Clear
4:55 PM 35.6 °F 29.2 °F 30.2 °F 81% 30.16 in 10.0 mi SSW 8.1 mph - N/A   Clear
5:15 PM 35.6 °F 30.7 °F 30.2 °F 81% 30.15 in 10.0 mi SSW 5.8 mph - N/A   Clear
5:35 PM 35.6 °F 29.9 °F 30.2 °F 81% 30.14 in 10.0 mi SW 6.9 mph - N/A   Clear
5:55 PM 37.4 °F 30.8 °F 30.2 °F 75% 30.13 in 10.0 mi SW 9.2 mph - N/A   Clear
6:15 PM 37.4 °F 30.3 °F 30.2 °F 75% 30.13 in 10.0 mi SW 10.4 mph - N/A   Clear
6:35 PM 35.6 °F 28.6 °F 30.2 °F 81% 30.12 in 10.0 mi SW 9.2 mph - N/A   Clear
7:15 PM 37.4 °F 31.4 °F 30.2 °F 75% 30.12 in 10.0 mi SSW 8.1 mph - N/A   Clear
7:35 PM 37.4 °F 29.8 °F 33.8 °F 87% 30.10 in 10.0 mi South 11.5 mph - N/A   Clear
7:55 PM 39.2 °F 33.0 °F 33.8 °F 81% 30.10 in 10.0 mi SSW 9.2 mph - N/A   Clear
8:15 PM 37.4 °F 30.3 °F 32.0 °F 81% 30.10 in 10.0 mi South 10.4 mph - N/A   Clear
8:35 PM 35.6 °F 28.6 °F 30.2 °F 81% 30.10 in 10.0 mi South 9.2 mph - N/A   Clear
8:55 PM 35.6 °F 27.5 °F 30.2 °F 81% 30.10 in 10.0 mi South 11.5 mph - N/A   Clear
9:15 PM 37.4 °F 30.3 °F 30.2 °F 75% 30.09 in 10.0 mi South 10.4 mph - N/A   Clear
9:35 PM 32.0 °F 23.0 °F 28.4 °F 87% 30.08 in 10.0 mi South 11.5 mph - N/A   Clear
9:55 PM 32.0 °F 23.0 °F 28.4 °F 87% 30.08 in 10.0 mi South 11.5 mph - N/A   Clear
10:15 PM 32.0 °F 24.2 °F 28.4 °F 87% 30.08 in 10.0 mi South 9.2 mph - N/A   Clear
10:35 PM 30.2 °F 21.9 °F 26.6 °F 86% 30.07 in 10.0 mi South 9.2 mph - N/A   Clear
10:55 PM 30.2 °F 23.4 °F 26.6 °F 86% 30.07 in 10.0 mi South 6.9 mph - N/A   Clear
11:15 PM 30.2 °F 21.9 °F 28.4 °F 93% 30.07 in 10.0 mi South 9.2 mph - N/A   Clear
11:35 PM 30.2 °F 21.3 °F 28.4 °F 93% 30.07 in 10.0 mi South 10.4 mph - N/A   Clear